{"data":{"norad_id":67546,"intl_designator":"2026-014Q","name":"STARLINK-36580","alt_names":[],"object_type":"PAYLOAD","status":"ACTIVE","operator":null,"country":"US","launch_date":"2026-01-22","launch_site_code":"AFWTR","launch_vehicle":null,"mission":null,"orbit_class":"UNKNOWN","rcs_meters":null,"size_class":null,"mass_kg":null,"dimensions":null,"purposes":["comms"],"wikipedia_slug":null,"has_3d_model":false,"image_url":null,"decayed_at":null,"tle_current":{"epoch":"2026-05-25T02:44:11.015232Z","epoch_age_seconds":59135,"freshness":"FRESH","line1":"1 67546U 26014Q   26145.11401638  .00019056  00000+0  59098-3 0  9997","line2":"2 67546  97.2877  32.1306 0001169  69.4540 290.6828 15.33451145 20492","mean_motion":15.33451145,"eccentricity":0.0001169,"inclination_deg":97.2877,"raan_deg":32.1306,"arg_perigee_deg":69.454,"mean_anomaly_deg":290.6828,"bstar":0.00059098,"rev_number":2049,"period_min":93.905828346426,"perigee_km":464.72486726746,"apogee_km":466.32491541766,"semimajor_km":6843.6618913426,"source":"CELESTRAK","updated_at":"2026-05-25T13:38:21.609578Z"}}}